Погода в Десятниково

Россия / Республика Бурятия     51°25′05″N   107°27′00″E
темп.,
°C
ветер,
м/с
пор.,
м/с
влажн.,
%
обл.,
%
осадки,
мм/ч
давл.,
гПа
погр.,
м
26 сентября, вс
вс2623:00+2зюз3493100 0.0 1016308
02:00+1зюз4799100 0.7 1017267
05:00+1зюз5999100 2.1 1017311
08:00+1з7119052 2.8 1018744
11:00+4з787396 0.0 1018909
14:00+6з676247 0.0 10171140
17:00+5з45555 0.0 10161075
20:00+1ю2279100 0.0 101812
27 сентября, пн
пн2723:00+1ююв217695 0.0 101613
02:00−1ююв227851 0.0 101512
05:00−1юв11835 0.0 101310
08:00+1ююв007626 0.0 101351
11:00+6с2161100 0.0 1010577
14:00+8с2253100 0.0 1008983
17:00+5з2369100 1.0 1010237
20:00+2зсз1276100 1.1 101211
28 сентября, вт
вт2823:000з118283 0.0 101410
02:00−1юз118872 0.0 101410
05:00−1зюз2290100 0.0 101630
08:000сз2680100 0.0 1017320
11:00+3сз6856100 0.1 10181584
14:00+3зсз7954100 0.2 10181749
17:00+3зсз6105777 0.2 10181477
20:00−1юз228053 0.2 102013
29 сентября, ср
ср2923:00−2юз228777 0.0 102023
02:00−2юз338574 0.0 102039
05:00−2юз228677 0.0 102023
08:00−1юз238093 0.0 1019140
11:00+3зсз5766100 0.1 10181267
14:00+4зсз6853100 0.4 10161562
17:00+3сз465496 0.2 10171355
20:000з2276100 0.3 101826
30 сентября, чт
чт3023:00−1зюз228684 0.0 101921
02:00−3зюз22925 0.0 101910
05:00−4ююз22935 0.0 102011
08:00−2ююз22845 0.0 102097
11:00+3з445524 0.0 10181044
14:00+6зсз444586 0.0 10151616
17:00+6сз335039 0.0 10151045
20:000всв11785 0.0 101710